Wind_Speed
35 36 37 38 38 39 40 41 41 42 43 43 44 44 43 43 44 44 45 45 45 46 46 46 47 47 47 47 47 47 46 45 45 45 45 45 44 44 44 43 42 42 41
35 36 37 38 39 39 40 41 42 42 43 43 44 45 44 44 45 45 45 46 46 47 47 48 48 49 49 49 49 49 49 48 47 47 48 47 47 47 46 46 46 45 45
35 36 36 38 39 39 39 41 42 43 44 44 45 45 45 45 46 46 46 46 47 47 47 48 48 49 49 50 50 50 50 50 49 50 49 49 49 49 49 49 49 48 48
35 36 37 38 38 39 39 40 41 43 44 44 45 45 46 46 45 46 47 47 48 48 48 48 49 49 50 50 50 51 51 51 51 52 51 52 52 52 51 50 50 50 50
37 37 37 37 38 39 40 41 41 42 44 45 45 45 46 46 46 46 46 47 48 48 48 49 49 50 51 51 52 52 52 52 53 53 53 52 53 53 52 51 51 51 51
36 37 37 38 39 39 40 41 42 42 44 45 45 45 45 46 47 47 47 47 47 48 48 49 50 50 51 52 52 52 52 53 53 54 54 53 53 53 53 53 52 51 52
36 36 37 38 39 39 40 41 42 42 43 44 45 46 46 45 46 47 48 47 47 48 49 50 51 51 52 53 53 53 53 53 53 53 53 54 54 53 54 53 52 52 52
36 36 37 37 38 38 39 40 40 41 43 44 45 46 46 46 46 47 47 48 48 48 49 50 51 51 52 53 54 54 54 54 53 53 53 53 54 54 54 54 53 54 54
36 37 38 38 38 38 38 39 39 41 42 43 44 45 45 45 45 46 47 47 48 48 49 50 51 52 53 54 55 55 55 54 54 54 54 54 54 55 55 55 55 54 54
37 37 37 37 38 38 39 39 39 40 41 42 43 44 44 45 45 45 46 46 47 48 49 49 51 52 53 54 55 55 55 56 55 55 55 56 56 56 57 57 57 56 56
36 37 37 37 38 38 39 39 39 40 42 42 43 44 44 44 45 45 46 47 48 49 50 50 50 51 52 54 55 54 55 55 56 56 56 57 57 58 58 58 58 58 58
35 35 36 37 38 38 38 39 39 40 41 42 42 43 44 44 45 46 47 48 49 49 50 51 52 52 52 53 55 55 55 56 56 56 57 57 57 58 58 59 58 58 59
36 35 35 36 37 37 38 38 39 40 40 40 41 42 44 45 45 46 47 48 48 49 50 50 51 52 53 53 54 53 55 55 55 56 57 58 57 57 58 59 59 59 59
36 36 35 35 36 36 37 37 38 39 40 41 42 43 44 44 45 46 47 47 48 48 49 51 51 52 52 52 53 54 55 57 57 57 58 58 58 58 58 59 60 60 59
36 36 36 36 36 36 37 37 38 39 40 42 42 43 44 45 46 46 47 46 46 47 48 50 51 52 53 53 53 55 56 56 58 58 58 59 58 58 58 58 59 60 59
36 36 36 37 37 37 38 38 39 40 40 41 42 43 43 45 46 47 47 47 48 48 49 50 51 51 53 54 54 56 57 57 58 59 58 58 58 58 58 59 60 59 59
35 36 37 37 37 37 38 39 40 40 41 41 42 43 43 44 46 47 46 46 47 48 49 50 51 52 52 53 54 55 56 57 57 58 59 59 58 58 58 58 59 59 59
35 35 36 36 36 37 37 38 39 40 41 42 43 43 43 43 44 45 45 46 48 48 49 50 51 52 52 52 54 55 55 55 56 56 57 57 58 57 57 58 58 58 58
35 35 35 36 36 37 37 38 39 40 41 42 42 43 43 43 44 45 45 46 47 48 49 49 50 51 51 51 52 53 53 53 53 54 55 56 56 57 57 58 58 58 58
35 35 35 35 36 36 37 38 39 39 40 41 41 42 43 44 44 44 45 46 47 47 48 48 48 49 50 51 52 52 52 52 53 53 54 54 55 56 57 57 57 57 58
34 35 35 35 35 35 36 37 38 38 39 39 40 42 42 43 44 44 45 46 46 47 47 47 48 48 48 48 50 51 51 51 52 52 52 52 53 54 55 56 56 57 57
34 35 35 35 36 36 36 37 37 37 37 38 39 40 41 42 42 43 43 44 45 46 46 47 47 47 47 47 48 49 50 50 51 51 51 51 51 53 54 55 55 56 57
34 34 35 35 36 36 36 36 36 36 37 38 38 39 39 40 41 41 42 43 44 44 44 45 45 46 47 47 47 47 48 49 50 49 49 50 51 52 53 53 54 54 55
34 34 34 34 35 35 35 35 35 36 36 36 37 38 38 38 39 39 39 40 41 42 42 43 43 44 45 45 45 45 46 47 48 48 49 49 50 51 52 52 52 52 53
34 34 34 34 34 34 34 34 34 34 35 36 36 36 37 37 37 37 38 39 40 40 41 41 42 42 42 43 44 44 44 45 45 46 47 47 48 49 50 50 50 50 51
34 34 34 33 33 33 33 34 34 34 34 34 35 35 35 35 36 36 36 37 37 38 39 39 40 40 41 41 42 43 44 45 45 46 45 45 46 46 47 49 49 50 50
Wind_Direction
267 267 266 266 265 264 262 261 260 260 260 259 258 256 256 256 256 257 258 258 259 258 257 256 254 254 255 255 255 256 256 256 256 256 256 256 256 256 255 256 256 256 256
268 269 269 268 266 265 263 261 260 259 260 259 258 256 256 257 256 258 259 259 259 258 257 256 255 254 254 255 255 255 256 257 257 257 257 256 256 257 256 256 257 257 257
269 270 270 270 269 266 263 261 260 259 259 259 258 257 257 257 257 259 259 260 259 258 258 257 255 254 254 255 255 256 256 256 257 257 257 256 257 257 256 257 257 257 257
271 271 271 270 269 268 265 263 261 260 260 259 258 257 257 258 258 259 259 259 259 258 258 257 256 255 255 255 255 255 256 256 257 257 257 257 257 257 257 257 258 258 257
273 273 273 272 270 269 267 264 262 261 260 259 258 258 258 260 258 259 258 259 259 258 257 256 255 256 256 256 255 255 256 257 257 257 257 257 258 258 258 258 258 257 257
276 274 273 271 271 270 269 266 264 263 261 259 258 258 260 260 258 259 259 258 258 258 256 256 255 255 256 256 256 256 256 257 257 257 257 257 258 259 258 258 257 257 256
275 274 274 273 272 271 270 268 266 265 262 260 259 259 260 260 259 260 258 258 258 258 258 257 256 257 257 256 257 257 257 257 257 257 257 257 257 258 257 257 257 256 256
275 274 274 274 273 272 271 269 268 266 264 260 259 259 260 260 259 260 258 259 259 259 258 258 256 257 257 257 257 257 257 257 257 256 256 257 257 257 257 257 257 257 256
275 274 274 274 273 272 271 270 269 267 265 263 261 261 262 261 261 260 260 260 260 260 260 259 258 258 258 258 258 258 257 257 257 256 256 257 257 258 257 258 257 258 257
277 274 274 274 273 272 272 271 270 268 265 264 263 263 263 262 261 261 261 262 262 262 261 260 258 259 259 259 259 258 257 256 256 256 256 256 257 258 258 258 258 258 258
278 276 273 273 273 273 273 272 271 268 266 265 265 264 263 263 262 263 262 263 263 263 262 262 261 261 261 260 259 258 257 256 256 256 256 257 257 257 257 258 258 258 257
278 277 274 274 274 273 273 272 271 269 267 266 265 265 264 264 264 265 265 265 265 265 264 262 263 262 262 261 260 259 258 257 256 256 257 257 258 258 257 257 257 258 257
279 278 277 275 275 274 273 272 271 270 269 268 267 266 266 265 265 266 267 266 266 266 265 264 263 263 262 261 260 260 258 258 257 257 258 258 258 258 258 257 257 257 257
281 279 278 277 275 274 273 273 272 270 269 269 269 268 268 266 266 266 267 267 266 266 266 265 264 263 263 262 262 262 260 259 258 259 259 259 258 258 258 257 256 256 256
282 280 279 279 277 275 274 274 273 272 271 271 271 270 269 267 267 268 268 268 268 267 266 266 264 264 263 263 263 263 262 261 260 259 259 258 258 257 257 256 255 255 255
283 282 282 281 279 277 276 275 274 274 273 272 272 271 270 269 268 269 269 268 267 268 268 267 266 265 264 264 264 264 262 262 261 260 260 259 258 257 256 255 255 255 254
284 283 283 282 280 279 277 276 275 275 275 274 273 272 272 271 270 270 269 269 268 268 268 267 267 265 265 265 265 265 264 263 263 262 260 259 258 257 256 255 255 254 254
285 283 283 283 282 281 280 278 278 277 276 275 274 274 274 273 273 272 271 270 269 269 269 268 267 266 265 265 266 265 264 264 263 262 260 259 257 256 256 256 255 255 255
286 285 284 285 284 283 282 281 280 280 278 277 275 275 275 275 274 273 272 271 271 270 269 270 268 266 265 265 266 266 265 264 263 262 261 260 258 257 257 257 257 256 256
286 284 284 286 287 286 285 283 283 282 280 279 278 276 276 276 275 274 273 273 272 271 269 270 269 268 267 266 266 267 266 264 263 262 261 261 259 258 257 258 258 257 256
285 285 286 287 288 288 287 286 286 285 283 282 280 279 278 277 276 275 273 273 273 272 270 270 269 268 268 268 268 267 266 265 263 262 262 261 260 259 258 258 258 257 257
287 287 287 287 287 288 288 289 289 288 286 285 283 282 281 279 277 275 275 274 273 273 272 271 270 269 268 269 269 267 266 265 264 263 262 261 260 259 259 259 259 258 257
289 288 288 287 287 288 289 290 289 289 288 287 286 284 283 281 279 277 276 274 273 273 273 272 270 269 269 269 269 267 266 265 264 263 262 261 260 259 258 258 259 259 258
289 288 288 289 289 290 290 290 290 290 290 289 288 287 285 283 281 279 277 276 273 272 272 273 271 270 269 269 269 268 267 266 265 263 262 261 260 259 259 258 259 259 259
288 288 288 289 290 290 290 290 291 292 292 291 290 288 286 285 283 282 280 278 276 274 273 273 271 271 270 270 269 269 267 266 264 263 261 260 259 260 259 259 259 260 260
290 290 290 290 290 290 289 290 291 292 292 292 291 290 289 288 287 286 284 282 279 277 275 274 273 272 271 271 270 270 269 267 266 264 262 261 261 261 260 259 259 259 260
Height
5704 5703 5703 5703 5703 5704 5704 5705 5706 5707 5708 5709 5710 5712 5714 5715 5717 5718 5719 5720 5721 5722 5724 5727 5729 5732 5735 5737 5739 5741 5744 5745 5747 5749 5751 5753 5755 5756 5758 5759 5761 5762 5764
5694 5693 5693 5692 5692 5692 5692 5693 5694 5695 5696 5697 5698 5700 5702 5703 5705 5706 5707 5707 5708 5709 5711 5713 5716 5719 5722 5724 5727 5729 5731 5733 5735 5737 5739 5741 5744 5745 5746 5748 5749 5751 5753
5684 5684 5683 5682 5681 5680 5680 5681 5682 5683 5684 5685 5686 5688 5690 5691 5693 5694 5694 5694 5695 5696 5698 5700 5703 5705 5708 5711 5713 5716 5718 5720 5722 5723 5726 5728 5730 5733 5735 5736 5737 5738 5740
5674 5674 5672 5671 5670 5669 5669 5669 5670 5671 5671 5672 5674 5676 5678 5679 5680 5681 5681 5682 5683 5684 5685 5687 5690 5693 5695 5698 5700 5702 5704 5707 5709 5710 5712 5714 5716 5718 5722 5724 5724 5725 5727
5664 5663 5662 5661 5659 5658 5658 5657 5658 5659 5659 5660 5662 5663 5665 5665 5667 5668 5669 5670 5670 5671 5673 5674 5676 5679 5682 5684 5686 5688 5690 5692 5694 5696 5698 5699 5701 5702 5706 5709 5711 5712 5713
5655 5653 5652 5650 5649 5648 5647 5646 5646 5647 5647 5649 5650 5651 5652 5653 5654 5655 5656 5657 5658 5658 5660 5661 5663 5665 5667 5670 5671 5674 5676 5678 5679 5681 5683 5684 5686 5688 5690 5693 5696 5698 5700
5645 5643 5641 5640 5639 5638 5637 5636 5635 5635 5636 5637 5638 5639 5639 5640 5641 5642 5643 5644 5645 5646 5648 5648 5650 5651 5653 5655 5657 5659 5661 5663 5665 5666 5668 5670 5672 5673 5675 5678 5680 5682 5685
5634 5633 5631 5629 5628 5627 5626 5625 5624 5624 5624 5625 5625 5626 5626 5627 5628 5629 5630 5631 5632 5633 5634 5635 5636 5637 5639 5640 5642 5644 5646 5648 5650 5651 5653 5655 5657 5659 5660 5662 5664 5667 5670
5623 5621 5620 5618 5617 5616 5615 5614 5613 5612 5612 5612 5612 5613 5613 5614 5615 5615 5616 5617 5618 5619 5619 5620 5622 5623 5624 5625 5627 5628 5630 5632 5635 5637 5639 5640 5642 5644 5646 5647 5649 5651 5654
5612 5610 5609 5607 5606 5605 5604 5603 5602 5601 5600 5600 5600 5600 5601 5601 5602 5602 5603 5603 5604 5605 5605 5605 5607 5608 5609 5610 5611 5613 5615 5617 5619 5621 5624 5625 5627 5628 5630 5631 5633 5635 5638
5600 5598 5597 5596 5595 5593 5592 5591 5590 5589 5588 5587 5587 5587 5587 5588 5588 5589 5590 5590 5590 5590 5590 5591 5592 5593 5594 5595 5596 5597 5599 5601 5603 5605 5608 5610 5611 5612 5614 5615 5617 5619 5622
5589 5587 5586 5584 5583 5582 5581 5579 5578 5577 5576 5575 5575 5574 5574 5574 5575 5575 5576 5575 5575 5575 5576 5576 5577 5578 5578 5579 5580 5582 5583 5585 5587 5589 5591 5593 5595 5596 5598 5600 5602 5604 5606
5579 5577 5575 5573 5572 5571 5569 5568 5566 5565 5564 5563 5563 5562 5562 5561 5562 5562 5562 5561 5561 5561 5561 5561 5562 5562 5563 5564 5565 5566 5567 5569 5571 5573 5575 5577 5578 5580 5581 5583 5586 5588 5590
5568 5566 5564 5562 5561 5559 5558 5556 5555 5553 5552 5552 5551 5550 5549 5549 5548 5548 5548 5547 5547 5546 5546 5546 5547 5547 5548 5549 5549 5550 5551 5553 5554 5556 5558 5559 5561 5563 5564 5567 5569 5571 5574
5558 5556 5554 5552 5550 5548 5547 5545 5544 5542 5541 5539 5538 5537 5536 5536 5535 5535 5534 5533 5533 5532 5532 5532 5532 5532 5533 5533 5534 5534 5535 5536 5537 5539 5540 5542 5544 5546 5547 5550 5552 5554 5557
5547 5545 5543 5541 5539 5538 5536 5534 5532 5531 5529 5528 5526 5525 5523 5523 5522 5521 5520 5520 5519 5518 5517 5517 5517 5517 5517 5518 5518 5518 5519 5519 5520 5522 5523 5525 5527 5529 5531 5533 5535 5538 5540
5537 5535 5533 5530 5529 5527 5525 5523 5521 5519 5518 5516 5514 5512 5511 5510 5509 5507 5506 5505 5504 5503 5503 5502 5501 5501 5502 5501 5501 5501 5502 5503 5503 5505 5506 5508 5510 5511 5513 5515 5518 5520 5523
5528 5525 5523 5520 5518 5516 5513 5511 5510 5508 5506 5504 5502 5500 5499 5497 5495 5494 5493 5491 5490 5489 5487 5486 5486 5486 5486 5486 5485 5484 5485 5486 5487 5488 5489 5491 5493 5494 5496 5498 5501 5503 5506
5518 5515 5513 5510 5508 5505 5503 5500 5498 5496 5494 5492 5490 5488 5486 5484 5482 5480 5479 5477 5476 5474 5472 5471 5470 5470 5470 5469 5469 5468 5468 5469 5471 5472 5473 5474 5476 5478 5480 5482 5485 5488 5490
5507 5505 5502 5500 5497 5495 5492 5489 5487 5484 5482 5479 5477 5475 5473 5471 5469 5467 5465 5463 5461 5459 5458 5456 5455 5454 5454 5454 5453 5452 5453 5454 5455 5456 5457 5458 5460 5461 5463 5465 5468 5471 5474
5497 5495 5492 5489 5487 5484 5481 5478 5476 5473 5470 5467 5465 5463 5460 5458 5455 5453 5451 5448 5447 5445 5443 5442 5441 5440 5439 5439 5438 5437 5437 5438 5439 5440 5441 5442 5444 5445 5447 5449 5452 5455 5457
5487 5485 5482 5479 5477 5474 5471 5468 5465 5462 5459 5456 5453 5450 5447 5445 5442 5439 5437 5435 5432 5431 5429 5428 5427 5426 5425 5424 5423 5422 5422 5422 5424 5425 5426 5427 5428 5430 5431 5433 5436 5438 5440
5477 5475 5472 5469 5466 5463 5461 5458 5454 5451 5448 5445 5441 5438 5435 5432 5429 5426 5424 5421 5419 5417 5416 5414 5413 5413 5411 5411 5409 5408 5407 5407 5408 5410 5411 5412 5413 5414 5416 5418 5420 5421 5423
5467 5464 5462 5459 5456 5453 5450 5447 5444 5440 5437 5434 5430 5426 5423 5420 5417 5413 5411 5409 5406 5405 5403 5402 5401 5399 5398 5397 5396 5394 5394 5393 5394 5394 5396 5397 5397 5399 5400 5402 5404 5405 5407
5456 5454 5451 5449 5446 5443 5440 5437 5433 5430 5427 5423 5419 5415 5412 5408 5405 5402 5399 5396 5394 5392 5391 5389 5388 5387 5386 5385 5383 5381 5381 5380 5380 5380 5381 5382 5383 5384 5386 5388 5389 5391 5392
5446 5443 5440 5438 5435 5432 5429 5426 5423 5419 5416 5412 5408 5405 5401 5397 5393 5390 5387 5384 5382 5380 5377 5376 5374 5374 5373 5372 5370 5369 5367 5366 5366 5366 5367 5368 5369 5370 5372 5373 5375 5376 5378